Precipitable_Water
0.33 0.33 0.30 0.29 0.30 0.36 0.42 0.48 0.50 0.50 0.50 0.53 0.55 0.56 0.57 0.55 0.55 0.56 0.56 0.57 0.58 0.64
0.30 0.27 0.25 0.25 0.25 0.27 0.36 0.43 0.49 0.50 0.51 0.53 0.55 0.56 0.57 0.54 0.52 0.55 0.56 0.57 0.59 0.61
0.25 0.25 0.24 0.22 0.20 0.22 0.24 0.30 0.40 0.47 0.51 0.53 0.54 0.55 0.54 0.52 0.52 0.54 0.57 0.58 0.59 0.61
0.23 0.22 0.22 0.22 0.22 0.20 0.19 0.20 0.25 0.31 0.41 0.49 0.51 0.54 0.54 0.54 0.54 0.55 0.58 0.60 0.62 0.63
0.27 0.24 0.21 0.21 0.23 0.22 0.18 0.18 0.20 0.22 0.25 0.31 0.39 0.46 0.49 0.51 0.53 0.53 0.55 0.57 0.59 0.62
0.28 0.25 0.21 0.21 0.24 0.22 0.20 0.19 0.17 0.18 0.20 0.22 0.25 0.30 0.31 0.37 0.47 0.53 0.54 0.56 0.56 0.58
0.24 0.24 0.24 0.23 0.23 0.23 0.20 0.20 0.19 0.17 0.18 0.19 0.21 0.22 0.25 0.26 0.28 0.33 0.45 0.53 0.56 0.57
0.24 0.24 0.23 0.22 0.22 0.22 0.21 0.19 0.18 0.18 0.17 0.18 0.20 0.20 0.20 0.21 0.22 0.24 0.25 0.30 0.37 0.45
0.24 0.24 0.23 0.21 0.21 0.20 0.20 0.19 0.17 0.15 0.16 0.17 0.18 0.19 0.19 0.18 0.19 0.21 0.20 0.22 0.24 0.26
0.24 0.24 0.23 0.22 0.20 0.20 0.19 0.19 0.18 0.16 0.15 0.16 0.18 0.19 0.18 0.17 0.16 0.18 0.20 0.20 0.22 0.22
0.25 0.25 0.25 0.24 0.23 0.21 0.20 0.19 0.18 0.18 0.17 0.15 0.17 0.19 0.19 0.18 0.17 0.16 0.16 0.19 0.19 0.20
0.25 0.26 0.25 0.25 0.25 0.25 0.24 0.22 0.21 0.20 0.19 0.18 0.18 0.18 0.18 0.19 0.18 0.17 0.16 0.16 0.18 0.18
0.23 0.23 0.23 0.25 0.24 0.25 0.26 0.26 0.26 0.24 0.24 0.22 0.20 0.20 0.19 0.19 0.18 0.16 0.16 0.17 0.17 0.18
0.24 0.23 0.23 0.23 0.25 0.26 0.25 0.25 0.26 0.26 0.25 0.23 0.22 0.21 0.20 0.19 0.19 0.19 0.17 0.17 0.17 0.19
Wind_Speed
20 20 21 22 23 24 25 26 26 25 25 24 24 23 23 22 23 23 25 27 29 30
18 18 19 20 21 22 23 24 24 23 23 21 20 19 19 19 19 21 24 26 27 28
16 16 16 18 19 20 21 22 22 22 22 20 19 18 17 17 18 19 21 23 24 26
14 14 15 16 17 18 20 20 20 22 22 21 19 19 18 17 18 18 19 18 19 22
13 13 14 14 15 17 19 20 19 20 21 21 20 19 19 19 20 17 17 17 16 17
12 12 13 13 14 15 17 18 19 19 20 21 21 20 19 20 20 20 18 16 14 12
11 12 12 13 13 14 15 16 17 18 19 20 20 20 19 20 21 20 20 18 16 14
11 12 12 12 12 13 13 14 15 16 17 18 19 19 19 19 20 20 19 19 18 17
12 12 12 12 11 12 12 12 13 14 15 16 17 18 18 18 18 20 20 19 18 17
12 11 11 11 11 11 11 11 12 12 14 15 16 17 16 16 17 18 19 19 17 17
12 11 10 10 10 9 10 10 10 11 12 13 15 16 16 15 15 16 17 17 17 16
10 10 9 9 9 9 9 9 9 10 12 12 13 15 15 14 14 14 15 15 15 15
8 8 8 8 8 8 9 9 9 10 11 12 12 14 15 14 13 14 14 14 14 15
8 7 7 7 7 8 8 9 9 10 11 12 13 14 15 15 14 14 14 14 14 14
Wind_Direction
312 315 319 322 324 326 329 329 327 324 318 312 309 303 296 294 288 284 278 274 271 268
313 319 323 327 330 332 336 340 340 338 336 328 322 318 311 305 299 292 287 281 276 270
313 320 327 333 338 340 340 345 350 351 349 348 342 334 328 318 310 306 301 290 281 275
314 319 325 331 340 346 351 350 351 354 356 356 356 355 350 340 329 320 316 307 295 285
306 317 326 329 337 345 351 356 357 358 360 0 360 359 359 355 349 341 335 326 315 306
302 311 321 329 334 341 349 354 359 1 2 4 6 6 6 7 6 5 1 355 348 346
308 312 316 323 331 336 344 350 355 0 3 6 9 11 12 13 14 16 20 18 18 6
306 311 314 319 325 331 340 347 351 357 2 5 8 12 14 17 19 22 23 24 26 27
303 306 310 314 319 325 332 341 348 355 0 3 7 9 15 18 21 24 25 24 28 31
300 302 308 311 316 321 328 335 344 351 357 2 3 6 10 15 18 22 24 25 25 28
298 300 305 309 314 323 326 333 341 347 353 358 2 3 6 9 11 17 21 23 24 25
306 305 305 309 314 320 324 332 337 342 350 351 357 3 3 2 4 7 11 13 17 20
310 310 311 312 316 322 328 328 328 336 342 345 347 353 357 357 356 358 358 1 4 7
311 307 312 315 317 320 325 331 329 332 335 340 343 342 346 348 345 344 346 346 347 349